Flag for Austria Weather past 2 weeks in Wiener Neustadt, Lower Austria, Austria

Now
63 °F

Passing clouds.


Feels Like: 63 °F
Forecast: 59 / 83 °F
Wind: 1 mph from Northeast

Location: Eisenstadt

Current Time: Jun 2, 2015 at 7:39:38 AM

Latest Report: Jun 2, 2015 at 7:00 AM


Visibility: 13 mi

Pressure: 30.04 "Hg

Humidity: 79%

Dew point: 57 °F

Location of Wiener NeustadtLocation

Historic Weather in Wiener Neustadt — Graph

°F

Wiener Neustadt temperature yesterday

Maximum temperature yesterday: 79 °F (at 5:00 PM)
Minimum temperature yesterday: 56 °F (at 4:00 AM)
Average temperature yesterday: 68 °F

Past Weeks' High & Low Weather Summary

 TemperatureHumidityPressure
High79 °F (Jun 1, 5:00 PM)94% (May 23, 11:00 AM)30.15 "Hg (May 23, 11:00 AM)
Low44 °F (May 28, 2:00 AM)41% (May 29, 5:00 PM)29.73 "Hg (May 19, 6:00 AM)
Average59 °F72%29.96 "Hg
* Reported May 18 4:00 AM — Jun 2 4:00 AM, Wiener Neustadt, Weather by CustomWeather, © 2015

Note: Actual official high and low records may vary slightly from our data, if they occured in-between our weather recording intervals... More about our weather records

Advertising

Wiener Neustadt weather history for previous 24 hours

 ConditionsComfort  
Time TempWeatherWind HumidityBarometerVisibility
4:00 AM
Tue, Jun 2
61 °FCool.2 mph88%30.02 "HgN/A
3:00 AM60 °FCool.3 mph91%30.01 "HgN/A
2:00 AM60 °FCool.5 mph89%30.01 "HgN/A
1:00 AM61 °FCool.3 mph88%30.01 "HgN/A
12:00 AM62 °FMild.3 mph86%30.01 "HgN/A
10:00 PM
Mon, Jun 1
65 °FMild.2 mph83%30.00 "HgN/A
9:00 PM67 °FMild.2 mph79%29.99 "HgN/A
8:00 PM76 °FPassing clouds.2 mph53%29.98 "Hg9 mi
7:00 PM77 °FPassing clouds.3 mph48%29.98 "Hg12 mi
6:00 PM78 °FWarm.3 mph48%29.98 "HgN/A
5:00 PM79 °FWarm.3 mph46%29.98 "HgN/A
4:00 PM78 °FWarm.3 mph48%29.99 "HgN/A
3:00 PM78 °FWarm.3 mph47%30.01 "HgN/A
2:00 PM77 °FPassing clouds.2 mph50%30.01 "Hg12 mi
1:00 PM75 °FMild.3 mph54%30.03 "HgN/A
11:00 AM71 °FMild.3 mph65%30.05 "HgN/A
10:00 AM69 °FMild.2 mph69%30.04 "HgN/A
9:00 AM66 °FMild.2 mph75%30.04 "HgN/A
8:00 AM64 °FScattered clouds.1 mph81%30.04 "Hg12 mi
7:00 AM61 °FScattered clouds.1 mph85%30.03 "Hg12 mi
Weather by CustomWeather, © 2015

See weather overviewHow to use our weather pages